www.pogodaiklimat.ru

Погода и климат >> Архив погоды >> Россия >> Амурская область >> Екатеринославка


ПОГОДА в Екатеринославке

  • Прогноз погоды в Екатеринославке
  • Монитор погоды в Екатеринославке

АРХИВ ПОГОДЫ в Екатеринославке

Время (UTC), дата Ветер
(напр.,м/с)
 
Видим.   Явления Облачность Т
(С)
Тd
(С)
f
(%)
Тe
(С)
Тes
(С)
Комфортность P
(гПа)
Po
(гПа)
Тmin
(С)
Tmax
(С)
R
(мм)
R24
(мм)
S
(см)
12 10.07 З 3 н/о 9/5 600 м
[Cb cap Ac trans Ci sp]
+24.4 +19.2 73 +29 +29 душно 1008.5 982.8 +29.0 0.0
15 10.07 С 3 н/о гроза, ливневой дождь 10/10 600 м
[Cb cap]
+18.7 +16.3 86 +20 +20 1011.0 984.8
18 10.07 Ю 5 н/о {гроза, ливн. осадки} 10/10 600 м
[Cb cap]
+18.2 +17.2 94 +18 +18 1008.9 982.7
21 10.07 ЮВ 1 20 км {гроза, ливн. осадки} 8/5 1000 м
[Sc Ac cast Ci sp]
+18.6 +17.2 92 +21 +21 комфорт 1008.4 982.2
00 11.07 С 1 50 км 9/9 1000 м
[Sc diur, vesp Ac trans Ci fib]
+22.5 +17.8 75 +28 +29 душно 1008.4 982.6 +17.6 19
06 11.07 Ю 6-10
{10}
20 км 9/8 600 м
[Cb cap Ci fib]
+24.7 +17.7 65 +29 +30 душно 1005.6 980.1
09 11.07 ЮЗ 1
{10}
20 км гроза, ливневой дождь 9/9 600 м
[Cb cap]
+20.9 +16.7 77 +26 +26 душно 1005.4 979.5
12 11.07 штиль 0 н/о {гроза, ливн. осадки} 9/9 600 м
[Cb cap]
+19.3 +17.8 91 +21 +21 комфорт 1005.4 979.4 +28.3 4
15 11.07 Ю 1 н/о 6/0
[Ci sp]
+17.5 +16.5 94 +19 +19 1005.0 978.8
21 11.07 штиль 0 20 км 8/0
[Ci sp]
+18.1 +17.1 94 +18 +19 1004.4 978.3
00 12.07 В 1 50 км 10/1
[Cu med, cong Cc]
+23.0 +16.8 68 +28 +36 душно 1004.1 978.4 +16.2
03 12.07 С 1 50 км 9/3 1000 м
[Cu med, cong Ac trans Ci fib]
+27.5 +15.7 49 +31 +39 душно 1003.0 977.7
06 12.07 ЮЗ 1 50 км 10/3 1000 м
[Cb cap Ci fib]
+28.1 +15.0 45 +31 +39 душно 1001.2 976.1
09 12.07 СВ 3 50 км 10/4 600 м
[Cb cap Ac trans Ci sp]
+24.3 +17.9 67 +28 +29 душно 1001.6 976.1
12 12.07 ЮВ 1 н/о 9/4 600 м
[Cb cap Ci fib]
+21.9 +18.1 79 +27 +27 душно 1002.8 977.1 +28.7
15 12.07 В 1 н/о {гроза} 4/0
[Ac trans Ci fib]
+18.8 +17.4 92 +21 +21 комфорт 1003.1 977.1
18 12.07 Ю 1 н/о {гроза} 3/0
[Ci fib]
+16.9 +15.9 94 +18 +18 1003.4 977.3
00 13.07 Ю 2 20 км 9/0
[Ci sp]
+24.1 +17.3 66 +28 +36 душно 1004.2 978.6 +15.7
03 13.07 Ю 2 20 км 9/4 1000 м
[Cu med, cong Ci sp]
+27.2 +16.2 51 +31 +39 душно 1003.3 978.0
09 13.07 ЮВ 2 20 км 8/3 1000 м
[Cu med, cong Ci fib]
+26.5 +17.5 58 +31 +32 душно 1001.6 976.3
12 13.07 ЮВ 2 н/о 6/3 1000 м
[Sc diur, vesp Ci sp]
+22.5 +18.1 76 +28 +28 душно 1003.1 977.4 +28.1
15 13.07 ЮВ 1 н/о 3/0
[Ci fib]
+19.1 +16.2 83 +22 +22 комфорт 1004.0 978.0
18 13.07 ЮВ 1 н/о 6/3 1000 м
[Sc Ci fib]
+17.9 +15.8 88 +19 +19 1004.0 977.8
21 13.07 Ю 3 20 км в посл. час ливневой дождь 10/8 600 м
[Cb cap Ac trans Ci sp]
+18.5 +16.7 89 +19 +20 1004.7 978.6
00 14.07 СЗ 4 20 км гроза, ливневой дождь 9/8 600 м
[Cb cap Ac cast Cc]
+20.5 +16.7 79 +24 +25 комфорт 1005.7 979.8 +17.7 0.0
03 14.07 ЮВ 3 20 км {гроза, ливн. осадки} 8/5 600 м
[Cb cap Ac trans Cc]
+25.6 +19.3 68 +31 +36 очень
душно
1003.9 978.5
06 14.07 СЗ 5-10
{11}
10 км гроза, ливневой дождь 9/9 600 м
[Cb cap]
+19.5 +17.6 89 +22 +22 комфорт 1004.9 978.9
09 14.07 Ю 3
{10}
20 км в посл. час ливневой дождь {гроза} 8/6 600 м
[Cb cap Ac trans Cc]
+19.5 +18.4 93 +22 +23 комфорт 1005.2 979.2
12 14.07 Ю 2 н/о {гроза, ливн. осадки} 8/5 600 м
[Cb cap Ac trans Ci sp]
+18.7 +16.5 87 +20 +20 1006.1 980.0 +26.9 23
15 14.07 Ю 2 н/о 6/0
[Ac trans]
+17.4 +16.1 92 +18 +18 1006.6 980.4
00 15.07 Ю 4 20 км {ливн. осадки} 10/0
[As trans]
+21.2 +18.5 85 +26 +28 душно 1007.9 982.0 +17.3 0.0
06 15.07 Ю 3 20 км 9/4 1000 м
[Cu med, cong Ac trans Ci sp]
+26.3 +18.1 61 +31 +34 душно 1006.6 981.1
09 15.07 ЮЗ 3 20 км гроза, ливневой дождь 9/9 600 м
[Cb cap]
+24.2 +18.4 70 +29 +29 душно 1006.5 980.9
12 15.07 Ю 2 н/о {гроза, ливн. осадки} 8/4 600 м
[Cb cap Ci fib]
+20.0 +16.8 82 +23 +23 комфорт 1007.9 981.9 +26.8 2
15 15.07 Ю 4 н/о 6/0
[Ac trans Ci sp]
+19.8 +17.5 87 +22 +22 комфорт 1008.0 982.0
18 15.07 Ю 3 н/о 10/10 600 м
[Cb cap]
+18.9 +17.4 91 +20 +20 1008.0 981.9
00 16.07 Ю 3 50 км {ливн. осадки} 10/10 600 м
[Cb cap]
+20.9 +17.7 82 +25 +25 комфорт 1007.9 982.0 +18.8 0.0
03 16.07 ЮЗ 3 50 км слаб. ливневой дождь 9/9 600 м
[Cb cap]
+20.9 +18.1 84 +25 +27 комфорт 1007.0 981.1
06 16.07 ЮВ 3 50 км {ливн. осадки} 9/5 600 м
[Cb cap Ac trans Ci fib]
+22.6 +17.6 73 +28 +31 душно 1006.5 980.7
09 16.07 Ю 3 50 км {ливн. осадки} 9/3 600 м
[Cb cap Ac trans Ci sp]
+21.8 +17.9 79 +26 +27 душно 1005.6 979.8
12 16.07 ЮВ 2 н/о {ливн. осадки} 10/10 600 м
[Cb cap]
+20.6 +17.6 83 +25 +25 комфорт 1005.8 979.9 +23.0 3
15 16.07 Ю 3 н/о слаб. ливневой дождь 10/10 600 м
[Cb cap]
+19.5 +17.8 90 +22 +22 комфорт 1005.7 979.7
21 16.07 Ю 3 20 км {ливн. осадки} 10/10 600 м
[Cb cap]
+19.2 +17.8 92 +21 +21 комфорт 1004.2 978.2
00 17.07 Ю 2 20 км {ливн. осадки} 10/10 600 м
[Cb cap]
+20.5 +18.1 86 +25 +25 комфорт 1004.4 978.5 +17.8 6
03 17.07 ЮВ 3 20 км слаб. ливневой дождь 10/10 600 м
[Cb cap]
+20.5 +17.9 85 +24 +24 комфорт 1004.4 978.5 +17.8

 

Местоположение метеостанции Екатеринославка (Амурская область, Россия): широта 50.37 долгота 129.00 высота над уровнем моря 227 м.

В архиве по умолчанию представлена погода в Екатеринославке за последнюю неделю. Архивные данные за месяц целиком и за предыдущие месяцы, начиная с января 2011 года, Вы можете получить, выбрав интересующий диапазон дат из раскрывающегося списка и нажав кнопку "Ввод!".


*Определитесь, кто Вы:
робот инопланетянин человек

Внимание! Время в таблицах - всемирное. Для получения местного времени необходимо прибавить поправку, которая равна 9 ч.

Смотрите также архив погоды в соседних городах и на ближайших метеорологических станциях:

Погода в Завитае (Амурская область, Россия) (40 км)
Погода в Братолюбовке (Амурская область, Россия) (50 км)
Погода в Белогорске (Амурская область, Россия) (74 км)
Погода в Поярково (Амурская область, Россия) (88 км)
Погода в Малиновке (Амурская область, Россия) (92 км)
Погода в Айгуне (Хэйлунцзян, Китай) (111 км)
Погода в Благовещенске (Амурская область, Россия) (114 км)
Погода в Константиновке (Амурская область, Россия) (115 км)
Погода в Архаре (Амурская область, Россия) (128 км)
Погода в Сергеевке (Амурская область, Россия) (128 км)

Пояснения к столбцам:

Ветер - указаны скорость ветра в м/с - средняя за 10 мин, порывы в срок и между сроками (в фигурных скобках) и направление, откуда дует ветер: С - северный, СВ - северо-восточный, В - восточный, ЮВ - юго-восточный, Ю - южный, ЮЗ - юго-западный, З - западный, СЗ - северо-западный.
Видимость - горизонтальная дальность видимости в метрах или километрах. При видимости от 1 до 10 км при отсутствии осадков обычно наблюдается дымка, при ухудшении видимости до 1 км и менее - туман. В сухую погоду видимость может ухудшаться дымом, пылью или мглою.
Явления - указаны атмосферные явления, наблюдавшиеся в срок или в последний час перед сроком; фигурными скобками обозначены явления, наблюдавшиеся между сроками (за 1-3 часа до срока); квадратными скобками обозначены град или гололедные отложения с указанием их диаметра в мм.
Облачность - указаны через наклонную черту общая и нижняя облачность в баллах и высота нижней границы облаков в метрах; квадратными скобками обозначены формы облаков: Ci - перистые, Cs - перисто-слоистые, Cc - перисто-кучевые, Ac - высококучевые, As - высокослоистые, Sc - слоисто-кучевые, Ns - слоисто-дождевые, Cu - кучевые, Cb - кучево-дождевые. Подробнее классификацию облаков см. в Атласе облаков (PDF).
T - Температура воздуха - температура, измеренная на высоте 2 м над землей.
Td - Температура точки росы - температура, при понижении до которой содержащийся в воздухе водяной пар достигнет насыщения.
f - Относительная влажность воздуха - влажноcть воздуха, измеренная на высоте 2 м над землей.
Te - Эффективная температура - температура, которую ощущает одетый по сезону человек в тени. Характеристика душности погоды. При расчете учитывается влияние влажности воздуха и скорости ветра на теплоощущения человека.
Tes - Эффективная температура на солнце - температура, которую ощущает человек, с поправкой на солнечный нагрев. Характеристика знойности погоды. Зависит от высоты солнца над горизонтом, облачности и скорости ветра. Ночью, в пасмурную погоду, а также при ветре 12 м/с и более поправка равна нулю.
P - Атмосферное давление - приведенное к уровню моря атмосферное давление.
Po - Атмосферное давление - измеренное на уровне метеостанции атмосферное давление.
Tmin - Минимальная температура - минимум температуры воздуха на высоте 2 м над землей.
Tmax - Максимальная температура - максимум температуры воздуха на высоте 2 м над землей.
R - Количество осадков - Количество выпавших осадков за период времени, мм. При наведении курсора мыши на число - период времени, за который выпало указанное количество осадков.
R24 - Количество осадков - Количество выпавших осадков за 24 часа, мм.
S - Снежный покров - Высота снежного покрова, см. При наведении курсора мыши на число - состояние снежного покрова и степень покрытия местности в баллах.